Weather History for CYHE - September, 2013

Change the Weather History Date:

Sunday, September 15, 2013

  Actual Average Record
Temperature  
Mean Temperature 70 °F -  
Max Temperature 79 °F 64 °F - ()
Min Temperature 61 °F 46 °F - ()
Cooling Degree Days 5    
Growing Degree Days 20 (Base 50)    
Moisture  
Dew Point 60 °F    
Average Humidity 83    
Maximum Humidity 96    
Minimum Humidity 43    
Precipitation  
Precipitation 0.08 in 0.20 in - ()
Sea Level Pressure  
Sea Level Pressure 29.75 in    
Wind  
Wind Speed 9 mph ()    
Max Wind Speed 18 mph    
Max Gust Speed 37 mph    
Visibility 7.0 miles    
Events Rain , Thunderstorm    
T = Trace of Precipitation, MM = Missing Value Source: Averaged Metar Reports

Daily Weather History Graph

Daily Weather History Graph

Search for Another Location

Airport or City:

Trip Planner

Search our weather history database for the weather conditions in past years. The results will help you decide how hot, cold, wet, or windy it might be!

Date:

Astronomy

Sep. 15, 2013 Rise Set
Actual Time 6:42 AM PDT 7:18 PM PDT
Civil Twilight 6:10 AM PDT 7:50 PM PDT
Nautical Twilight 5:32 AM PDT 8:28 PM PDT
Astronomical Twilight 4:52 AM PDT 9:08 PM PDT
Moon 5:04 PM PDT (9/15) 2:08 AM PDT (9/15)
Length of Visible Light 13h 39m
Length of Day
12h 35m
Waxing Gibbous, 83% of the Moon is Illuminated
Sep 15
Waxing Gibbous
Sep 19
Full
Sep 26
Last Quarter
Oct 4
New
Oct 11
First Quarter

Hourly Weather History & Observations

Time (PDT) Temp. Dew Point Humidity Pressure Visibility Wind Dir Wind Speed Gust Speed Precip Events Conditions
12:00 AM 68.0 °F 62.6 °F 83% 29.76 in 9.0 mi East 8.1 mph - N/A   Clear
1:00 AM 66.2 °F 62.6 °F 88% 29.76 in 9.0 mi East 8.1 mph - N/A   Clear
2:00 AM 65 °F 62 °F 85% 29.75 in - East 10.4 mph - -  
2:00 AM 66.2 °F 62.6 °F 88% 29.75 in 9.0 mi East 9.2 mph - N/A   Clear
3:00 AM 66.2 °F 60.8 °F 83% 29.75 in 9.0 mi East 10.4 mph - N/A   Clear
4:00 AM 64.4 °F 59.0 °F 83% 29.75 in 9.0 mi ENE 9.2 mph - N/A   Clear
5:00 AM 64 °F 59 °F 78% 29.73 in - East 9.2 mph - -  
5:00 AM 64.4 °F 59.0 °F 83% 29.74 in 9.0 mi East 8.1 mph - N/A   Clear
6:00 AM 64.4 °F 59.0 °F 83% 29.73 in 9.0 mi East 11.5 mph - N/A   Clear
7:00 AM 64.4 °F 57.2 °F 77% 29.73 in 9.0 mi ENE 6.9 mph - N/A   Clear
8:00 AM 67 °F 58 °F 66% 29.73 in - ENE 8.1 mph - -  
8:00 AM 66.2 °F 57.2 °F 73% 29.73 in 9.0 mi East 10.4 mph - N/A   Clear
9:00 AM 68.0 °F 59.0 °F 73% 29.72 in 9.0 mi East 8.1 mph - N/A   Partly Cloudy
10:00 AM 73.4 °F 60.8 °F 65% 29.70 in 9.0 mi East 5.8 mph - N/A   Clear
11:00 AM 77 °F 59 °F 43% 29.67 in - East 11.5 mph - -  
11:00 AM 78.8 °F 59.0 °F 51% 29.68 in 9.0 mi ESE 13.8 mph - N/A   Clear
12:00 PM 78.8 °F 57.2 °F 47% 29.66 in 9.0 mi East 5.8 mph - N/A   Clear
1:00 PM 71.6 °F 62.6 °F 73% 29.68 in 9.0 mi West 15.0 mph 23.0 mph N/A   Partly Cloudy
1:13 PM 69.8 °F 62.6 °F 78% 29.69 in 5.0 mi WNW 13.8 mph 21.9 mph N/A   Haze
1:49 PM 69.8 °F 60.8 °F 73% 29.70 in 6.0 mi West 17.3 mph 27.6 mph N/A   Haze
2:00 PM 69 °F 60 °F 64% 29.69 in - West 18.4 mph - -  
2:00 PM 69.8 °F 59.0 °F 68% 29.70 in 7.0 mi WNW 18.4 mph 31.1 mph N/A   Clear
3:00 PM 71.6 °F 60.8 °F 69% 29.68 in 9.0 mi WNW 9.2 mph 19.6 mph N/A   Clear
4:00 PM 71.6 °F 60.8 °F 69% 29.65 in 9.0 mi WNW 11.5 mph 17.3 mph N/A   Partly Cloudy
5:00 PM 73 °F 62 °F 60% 29.64 in - WSW 8.1 mph - -  
5:00 PM 73.4 °F 62.6 °F 69% 29.65 in 9.0 mi West 10.4 mph - N/A   Mostly Cloudy
6:00 PM 69.8 °F 60.8 °F 73% 29.67 in 9.0 mi WNW 17.3 mph 36.8 mph N/A   Clear
7:00 PM 66.2 °F 59.0 °F 78% 29.71 in 9.0 mi West 16.1 mph 29.9 mph N/A   Scattered Clouds
8:00 PM 65 °F 59 °F 75% 29.73 in - WNW 8.1 mph - -  
8:00 PM 66.2 °F 59.0 °F 78% 29.74 in 9.0 mi Variable 8.1 mph 18.4 mph N/A   Scattered Clouds
8:12 PM 64.4 °F 59.0 °F 83% 29.76 in 9.0 mi West 10.4 mph 18.4 mph N/A Thunderstorm Mostly Cloudy
8:30 PM 66.2 °F 59.0 °F 78% 29.77 in 9.0 mi WNW 11.5 mph 24.2 mph N/A Rain , Thunderstorm Light Rain
8:44 PM 64.4 °F 60.8 °F 88% 29.78 in 7.0 mi West 13.8 mph 26.5 mph N/A Rain Rain
8:50 PM 62.6 °F 60.8 °F 94% 29.78 in 5.0 mi West 12.7 mph 26.5 mph N/A Rain Rain
8:55 PM 64.4 °F 60.8 °F 88% 29.78 in 6.0 mi WNW 13.8 mph 20.7 mph N/A Rain Light Rain
8:57 PM 64.4 °F 60.8 °F 88% 29.78 in 6.0 mi WNW 11.5 mph 20.7 mph N/A Rain Light Rain
8:59 PM 64.4 °F 60.8 °F 88% 29.78 in 7.0 mi WNW 11.5 mph 19.6 mph N/A Rain Light Rain
9:00 PM 64.4 °F 60.8 °F 88% 29.78 in 7.0 mi West 11.5 mph 19.6 mph N/A Rain Light Rain
9:05 PM 62.6 °F 60.8 °F 94% 29.78 in 7.0 mi West 12.7 mph 18.4 mph N/A Rain Light Rain
9:07 PM 62.6 °F 60.8 °F 94% 29.78 in 7.0 mi West 12.7 mph 18.4 mph N/A Rain Light Rain
9:15 PM 62.6 °F 60.8 °F 94% 29.78 in 5.0 mi West 9.2 mph 20.7 mph N/A Rain Light Rain
9:21 PM 62.6 °F 60.8 °F 94% 29.78 in 5.0 mi WNW 8.1 mph 20.7 mph N/A Rain Heavy Rain
9:24 PM 62.6 °F 60.8 °F 94% 29.78 in 5.0 mi WNW 9.2 mph 18.4 mph N/A Rain Heavy Rain
9:25 PM 62.6 °F 60.8 °F 94% 29.78 in 5.0 mi WNW 8.1 mph 17.3 mph N/A Rain Heavy Rain
9:26 PM 62.6 °F 60.8 °F 94% 29.78 in 5.0 mi WNW 6.9 mph 17.3 mph N/A Rain Rain
9:30 PM 62.6 °F 60.8 °F 94% 29.78 in 5.0 mi WNW 9.2 mph 17.3 mph N/A Rain Light Rain
9:39 PM 62.6 °F 60.8 °F 94% 29.78 in 5.0 mi WNW 8.1 mph - N/A Rain Light Rain
9:47 PM 62.6 °F 60.8 °F 94% 29.78 in 6.0 mi West 10.4 mph - N/A Rain Light Rain
10:00 PM 62.6 °F 60.8 °F 94% 29.79 in 7.0 mi WNW 11.5 mph 17.3 mph N/A Rain Light Rain
10:29 PM 62.6 °F 60.8 °F 94% 29.79 in 5.0 mi West 11.5 mph - N/A Rain Rain
10:43 PM 62.6 °F 60.8 °F 94% 29.79 in 6.0 mi West 5.8 mph - N/A Rain Light Rain
11:00 PM 61 °F 60 °F 96% 29.80 in - SW 4.6 mph - -  
11:00 PM 62.6 °F 60.8 °F 94% 29.80 in 5.0 mi Variable 6.9 mph - N/A Rain Rain
11:06 PM 62.6 °F 60.8 °F 94% 29.80 in 6.0 mi Variable 3.5 mph - N/A Rain Rain
11:13 PM 62.6 °F 60.8 °F 94% 29.80 in 5.0 mi Variable 2.3 mph - N/A Rain Rain
11:15 PM 62.6 °F 60.8 °F 94% 29.79 in 4.0 mi Variable 2.3 mph - N/A Rain Heavy Rain
11:16 PM 62.6 °F 60.8 °F 94% 29.79 in 4.0 mi Variable 3.5 mph - N/A Rain Heavy Rain
11:23 PM 62.6 °F 60.8 °F 94% 29.78 in 3.0 mi ESE 10.4 mph - N/A Rain Light Rain
11:31 PM 62.6 °F 60.8 °F 94% 29.78 in 6.0 mi East 8.1 mph - N/A Rain Rain
11:44 PM 62.6 °F 60.8 °F 94% 29.75 in 5.0 mi East 8.1 mph - N/A Rain Rain
11:53 PM 62.6 °F 60.8 °F 94% 29.75 in 7.0 mi ESE 11.5 mph 18.4 mph N/A Rain Light Rain